CW0146 Weather Reports


time (UTC)temp
C
wind
direction
speed
KPH
gust
KPH
rain 1hr
cm
rain 24hr
cm
rain mn
cm
humidity
%
barometer
mb
20260506014954 26 107 1.6 3.2 0.00 0.00 0.00 81 1007.0
20260506014454 26 89 1.6 3.2 0.00 0.00 0.00 81 1007.0
20260506013954 26 105 1.6 6.4 0.00 0.00 0.00 81 1007.0
20260506013454 26 156 3.2 6.4 0.00 0.00 0.00 81 1007.0
20260506012954 26 98 0.0 3.2 0.00 0.00 0.00 80 1007.0
20260506012454 26 72 1.6 4.8 0.00 0.00 0.00 80 1007.0
20260506011956 26 120 1.6 4.8 0.00 0.00 0.00 79 1007.0
20260506011455 27 101 3.2 6.4 0.00 0.00 0.00 79 1007.0
20260506010954 27 116 1.6 3.2 0.00 0.00 0.00 78 1007.0
20260506010454 27 99 1.6 4.8 0.00 0.00 0.00 78 1007.0
20260506005954 27 116 1.6 1.6 0.00 0.00 0.00 77 1007.0
20260506005454 27 147 1.6 4.8 0.00 0.00 0.00 77 1007.0
20260506004954 27 183 1.6 4.8 0.00 0.00 0.00 76 1007.0
20260506004454 27 177 1.6 4.8 0.00 0.00 0.00 76 1007.0
20260506003954 27 174 3.2 6.4 0.00 0.00 0.00 76 1007.0
20260506003454 27 106 1.6 3.2 0.00 0.00 0.00 76 1006.0
20260506002954 27 97 3.2 8.0 0.00 0.00 0.00 76 1007.0
20260506002454 27 163 1.6 6.4 0.00 0.00 0.00 75 1007.0
20260506001954 27 122 3.2 6.4 0.00 0.00 0.00 75 1007.0
20260506001454 27 201 3.2 6.4 0.00 0.00 0.00 74 1007.0
20260506000954 27 129 3.2 6.4 0.00 0.00 0.00 74 1007.0
20260506000455 27 130 1.6 3.2 0.00 0.00 0.00 74 1007.0
20260505235957 28 141 3.2 6.4 0.00 0.00 0.00 74 1006.0
20260505235454 28 170 3.2 6.4 0.00 0.00 0.00 74 1006.0
20260505234954 28 206 3.2 6.4 0.00 0.00 0.00 74 1006.0
20260505234454 28 132 3.2 8.0 0.00 0.00 0.00 73 1006.0
20260505233954 28 118 1.6 3.2 0.00 0.00 0.00 73 1006.0
20260505233454 28 127 3.2 6.4 0.00 0.00 0.00 73 1006.0
20260505232954 28 185 8.0 14.5 0.00 0.00 0.00 73 1006.0
20260505232454 28 186 6.4 12.9 0.00 0.00 0.00 72 1006.0
20260505231954 28 178 6.4 12.9 0.00 0.00 0.00 72 1006.0
20260505231454 28 171 3.2 6.4 0.00 0.00 0.00 73 1006.0
20260505230954 28 94 3.2 6.4 0.00 0.00 0.00 73 1006.0
20260505230454 28 150 3.2 6.4 0.00 0.00 0.00 73 1006.0
20260505225955 28 131 3.2 6.4 0.00 0.00 0.00 73 1006.0
20260505225454 28 167 3.2 6.4 0.00 0.00 0.00 73 1006.0
20260505224954 28 134 3.2 3.2 0.00 0.00 0.00 73 1006.0
20260505224455 28 101 4.8 9.7 0.00 0.00 0.00 72 1006.0
20260505223954 28 160 3.2 6.4 0.00 0.00 0.00 71 1006.0
20260505223454 28 176 4.8 8.0 0.00 0.00 0.00 71 1006.0
20260505222954 28 159 3.2 6.4 0.00 0.00 0.00 71 1006.0
20260505222454 28 189 4.8 11.3 0.00 0.00 0.00 71 1006.0
20260505221954 28 145 3.2 6.4 0.00 0.00 0.00 71 1006.0
20260505221454 28 178 4.8 8.0 0.00 0.00 0.00 71 1006.0
20260505220955 28 184 3.2 9.7 0.00 0.00 0.00 71 1006.0
20260505220454 29 189 3.2 9.7 0.00 0.00 0.00 71 1006.0
20260505215955 29 189 3.2 8.0 0.00 0.00 0.00 70 1006.0
20260505215454 28 156 4.8 8.0 0.00 0.00 0.00 70 1006.0
20260505214954 28 156 3.2 4.8 0.00 0.00 0.00 71 1006.0
20260505214454 28 190 6.4 9.7 0.00 0.00 0.00 69 1006.0
20260505213954 28 182 4.8 11.3 0.00 0.00 0.00 69 1006.0
20260505213454 29 175 9.7 19.3 0.00 0.00 0.00 68 1006.0
20260505212955 29 156 3.2 12.9 0.00 0.00 0.00 69 1006.0
20260505212455 28 196 4.8 9.7 0.00 0.00 0.00 69 1006.0
20260505211954 28 177 8.0 20.9 0.00 0.00 0.00 69 1006.0
20260505211455 28 188 9.7 17.7 0.00 0.00 0.00 69 1006.0
20260505210537 28 180 4.8 8.0 0.00 0.00 0.00 69 1007.0
20260505205954 28 149 4.8 8.0 0.00 0.00 0.00 71 1007.0
20260505205454 28 185 8.0 12.9 0.00 0.00 0.00 71 1007.0
20260505204957 28 83 3.2 6.4 0.00 0.00 0.00 71 1007.0
20260505204454 28 184 4.8 11.3 0.00 0.00 0.00 69 1006.0
20260505203954 28 160 3.2 6.4 0.00 0.00 0.00 70 1007.0
20260505203455 28 157 6.4 12.9 0.00 0.00 0.00 69 1007.0
20260505202954 28 183 8.0 14.5 0.00 0.00 0.00 70 1007.0
20260505202455 28 157 4.8 12.9 0.00 0.00 0.00 72 1007.0
20260505201954 28 197 4.8 11.3 0.00 0.00 0.00 71 1007.0
20260505201454 28 206 6.4 12.9 0.00 0.00 0.00 71 1007.0
20260505200954 28 185 8.0 14.5 0.00 0.00 0.00 71 1007.0
20260505200455 28 184 4.8 9.7 0.00 0.00 0.00 71 1007.0
20260505195954 28 182 3.2 6.4 0.00 0.00 0.00 72 1007.0
20260505195454 27 174 3.2 11.3 0.00 0.00 0.00 72 1007.0
20260505194955 27 184 6.4 14.5 0.00 0.00 0.00 73 1007.0
20260505194454 27 181 4.8 11.3 0.00 0.00 0.00 74 1007.0
20260505193954 27 191 6.4 11.3 0.00 0.00 0.00 74 1008.0
20260505193454 27 195 4.8 9.7 0.00 0.00 0.00 75 1008.0
20260505192954 27 183 4.8 9.7 0.00 0.00 0.00 74 1008.0
20260505192454 27 211 3.2 4.8 0.00 0.00 0.00 75 1008.0
20260505191954 27 195 6.4 14.5 0.00 0.00 0.00 72 1008.0
20260505191454 27 173 4.8 8.0 0.00 0.00 0.00 72 1008.0
20260505190954 27 202 3.2 8.0 0.00 0.00 0.00 74 1007.0
20260505190454 27 172 3.2 6.4 0.00 0.00 0.00 76 1008.0
20260505185954 27 182 8.0 14.5 0.00 0.00 0.00 74 1008.0
20260505185454 26 193 4.8 9.7 0.00 0.00 0.00 77 1007.0
20260505184954 27 178 4.8 9.7 0.00 0.00 0.00 74 1008.0
20260505184453 26 193 4.8 8.0 0.00 0.00 0.00 75 1008.0
20260505183954 26 187 4.8 6.4 0.00 0.00 0.00 76 1008.0
20260505183454 26 208 4.8 8.0 0.00 0.00 0.00 78 1008.0
20260505182954 26 188 4.8 11.3 0.00 0.00 0.00 77 1008.0
20260505182454 26 209 4.8 8.0 0.00 0.00 0.00 78 1008.0
20260505181955 26 178 4.8 9.7 0.00 0.00 0.00 78 1008.0
20260505181454 25 179 6.4 11.3 0.00 0.00 0.00 78 1008.0
20260505180954 25 177 6.4 11.3 0.00 0.00 0.00 78 1008.0
20260505180454 25 185 4.8 11.3 0.00 0.00 0.00 80 1009.0
20260505175954 25 198 6.4 12.9 0.00 0.00 0.00 79 1009.0
20260505175454 25 174 8.0 19.3 0.00 0.00 0.00 79 1008.0
20260505174954 25 200 4.8 9.7 0.00 0.00 0.00 80 1009.0
20260505174455 25 185 6.4 11.3 0.00 0.00 0.00 80 1008.0
20260505173954 25 195 6.4 12.9 0.00 0.00 0.00 81 1008.0
20260505173455 25 188 4.8 11.3 0.00 0.00 0.00 81 1009.0
20260505172954 24 174 6.4 9.7 0.00 0.00 0.00 82 1009.0
20260505172454 24 188 6.4 9.7 0.00 0.00 0.00 82 1009.0
20260505171955 24 181 6.4 9.7 0.00 0.00 0.00 83 1009.0
20260505171500 24 176 4.8 9.7 0.00 0.00 0.00 83 1009.0
20260505170954 24 178 3.2 6.4 0.00 0.00 0.00 84 1009.0
20260505170456 24 192 4.8 9.7 0.00 0.00 0.00 83 1009.0
20260505165954 23 186 6.4 11.3 0.00 0.00 0.00 84 1009.0
20260505165454 23 175 3.2 8.0 0.00 0.00 0.00 84 1009.0
20260505164954 23 185 6.4 11.3 0.00 0.00 0.00 84 1009.0
20260505164455 23 188 3.2 6.4 0.00 0.00 0.00 85 1009.0
20260505163954 23 206 4.8 11.3 0.00 0.00 0.00 86 1009.0
20260505163454 23 240 3.2 6.4 0.00 0.00 0.00 87 1009.0
20260505162954 23 203 6.4 11.3 0.00 0.00 0.00 87 1009.0
20260505162454 23 176 6.4 12.9 0.00 0.00 0.00 87 1009.0
20260505161954 22 175 8.0 12.9 0.00 0.00 0.00 88 1009.0
20260505161455 22 177 6.4 12.9 0.00 0.00 0.00 88 1009.0
20260505160954 22 192 4.8 12.9 0.00 0.00 0.00 88 1009.0
20260505160454 22 218 3.2 4.8 0.00 0.00 0.00 88 1009.0
20260505152955 22 204 4.8 8.0 0.00 0.00 0.00 89 1009.0
20260505152454 22 187 4.8 9.7 0.00 0.00 0.00 89 1009.0
20260505151954 22 172 6.4 9.7 0.00 0.00 0.00 89 1009.0
20260505151456 22 187 4.8 8.0 0.00 0.00 0.00 89 1009.0
20260505150954 22 202 4.8 9.7 0.00 0.00 0.00 89 1009.0
20260505150454 22 191 3.2 8.0 0.00 0.00 0.00 89 1009.0
20260505140454 22 197 6.4 11.3 0.00 0.00 0.00 90 1008.0
20260505124955 21 183 6.4 9.7 0.00 0.00 0.00 90 1008.0
20260505124455 21 174 6.4 12.9 0.00 0.00 0.00 90 1008.0
20260505123955 21 178 8.0 17.7 0.00 0.00 0.00 90 1008.0
20260505123454 21 181 6.4 14.5 0.00 0.00 0.00 90 1008.0
20260505122954 21 212 6.4 9.7 0.00 0.00 0.00 90 1008.0
20260505122454 21 184 6.4 12.9 0.00 0.00 0.00 90 1008.0
20260505121955 21 187 4.8 8.0 0.00 0.00 0.00 90 1008.0
20260505121455 21 181 6.4 16.1 0.00 0.00 0.00 90 1007.0
20260505120954 21 178 6.4 11.3 0.00 0.00 0.00 90 1007.0
20260505120454 21 192 6.4 12.9 0.00 0.00 0.00 90 1007.0
20260505115955 21 194 4.8 14.5 0.00 0.00 0.00 90 1007.0
20260505115454 21 191 4.8 8.0 0.00 0.00 0.00 90 1007.0
20260505114956 21 187 9.7 16.1 0.00 0.00 0.00 90 1007.0
20260505114455 21 184 6.4 11.3 0.00 0.00 0.00 90 1007.0
20260505113954 21 179 4.8 6.4 0.00 0.00 0.00 90 1007.0
20260505113454 21 206 6.4 11.3 0.00 0.00 0.00 90 1007.0
20260505112955 21 178 4.8 8.0 0.00 0.00 0.00 90 1007.0
20260505112453 21 185 6.4 9.7 0.00 0.00 0.00 90 1007.0
20260505111955 21 175 4.8 9.7 0.00 0.00 0.00 90 1007.0
20260505111454 21 177 6.4 12.9 0.00 0.00 0.00 90 1007.0
20260505110955 21 186 8.0 16.1 0.00 0.00 0.00 90 1007.0
20260505110454 21 201 3.2 8.0 0.00 0.00 0.00 90 1007.0
20260505101954 21 187 6.4 9.7 0.00 0.00 0.00 88 1008.0
20260505101454 21 197 4.8 8.0 0.00 0.00 0.00 88 1008.0
20260505100955 21 168 6.4 9.7 0.00 0.00 0.00 88 1008.0
20260505100456 21 183 3.2 6.4 0.00 0.00 0.00 88 1008.0
20260505095954 21 181 3.2 6.4 0.00 0.00 0.00 88 1008.0
20260505095454 21 182 6.4 8.0 0.00 0.00 0.00 88 1008.0
20260505094958 21 175 4.8 9.7 0.00 0.00 0.00 88 1008.0
20260505094454 21 178 4.8 9.7 0.00 0.00 0.00 88 1008.0
20260505093954 21 201 3.2 8.0 0.00 0.00 0.00 88 1008.0
20260505093456 21 179 4.8 12.9 0.00 0.00 0.00 88 1008.0
20260505092954 21 180 6.4 9.7 0.00 0.00 0.00 87 1008.0
20260505092454 21 182 6.4 14.5 0.00 0.00 0.00 87 1008.0
20260505092002 21 164 4.8 8.0 0.00 0.00 0.00 87 1008.0
20260505091454 21 174 6.4 8.0 0.00 0.00 0.00 87 1008.0
20260505090955 21 173 3.2 8.0 0.00 0.00 0.00 87 1008.0
20260505090454 21 181 6.4 11.3 0.00 0.00 0.00 87 1008.0
20260505085954 21 177 4.8 11.3 0.00 0.00 0.00 88 1008.0
20260505085455 21 180 4.8 8.0 0.00 0.00 0.00 88 1008.0
20260505084954 21 160 3.2 6.4 0.00 0.00 0.00 89 1008.0
20260505084454 21 179 6.4 12.9 0.00 0.00 0.00 89 1008.0
20260505083955 21 183 4.8 9.7 0.00 0.00 0.00 89 1008.0
20260505083454 21 182 6.4 14.5 0.00 0.00 0.00 89 1008.0
20260505082955 21 174 4.8 12.9 0.00 0.00 0.00 89 1008.0
20260505082454 21 185 6.4 12.9 0.00 0.00 0.00 88 1008.0
20260505081954 21 186 8.0 14.5 0.00 0.00 0.00 88 1008.0
20260505081455 21 186 4.8 9.7 0.00 0.00 0.00 88 1008.0
20260505080955 21 189 6.4 9.7 0.00 0.00 0.00 88 1008.0
20260505080454 21 189 4.8 11.3 0.00 0.00 0.00 88 1008.0
20260505075954 21 199 4.8 8.0 0.00 0.00 0.00 88 1008.0
20260505075454 21 187 3.2 9.7 0.00 0.00 0.00 88 1008.0
20260505074954 21 176 6.4 11.3 0.00 0.00 0.00 87 1008.0
20260505074454 21 183 8.0 17.7 0.00 0.00 0.00 87 1008.0
20260505073954 21 186 9.7 17.7 0.00 0.00 0.00 87 1008.0
20260505073454 21 195 6.4 14.5 0.00 0.00 0.00 87 1008.0
20260505072954 21 187 8.0 11.3 0.00 0.00 0.00 87 1009.0
20260505072454 21 194 8.0 14.5 0.00 0.00 0.00 87 1009.0
20260505071955 21 178 6.4 11.3 0.00 0.00 0.00 87 1009.0
20260505071459 21 196 8.0 11.3 0.00 0.00 0.00 87 1009.0
20260505070955 21 189 9.7 17.7 0.00 0.00 0.00 87 1009.0
20260505070456 21 187 6.4 9.7 0.00 0.00 0.00 87 1009.0
20260505065954 21 180 8.0 14.5 0.00 0.00 0.00 87 1009.0
20260505065454 21 191 6.4 11.3 0.00 0.00 0.00 87 1009.0
20260505064954 21 172 9.7 17.7 0.00 0.00 0.00 87 1009.0
20260505064454 21 187 6.4 14.5 0.00 0.00 0.00 87 1009.0
20260505063954 21 186 6.4 9.7 0.00 0.00 0.00 87 1009.0
20260505063454 21 193 6.4 11.3 0.00 0.00 0.00 87 1009.0
20260505062954 21 172 6.4 11.3 0.00 0.00 0.00 87 1009.0
20260505062454 21 195 4.8 9.7 0.00 0.00 0.00 87 1009.0
20260505061954 21 163 6.4 12.9 0.00 0.00 0.00 87 1009.0
20260505061455 21 184 4.8 8.0 0.00 0.00 0.00 87 1009.0
20260505060955 21 183 4.8 12.9 0.00 0.00 0.00 87 1009.0
20260505060454 21 176 8.0 11.3 0.00 0.00 0.00 87 1009.0
20260505055954 21 181 6.4 12.9 0.00 0.00 0.00 87 1009.0
20260505055454 21 178 8.0 17.7 0.00 0.00 0.00 87 1009.0
20260505054954 21 190 6.4 12.9 0.00 0.00 0.00 87 1009.0
20260505054455 21 176 6.4 12.9 0.00 0.00 0.00 87 1009.0
20260505053954 21 175 4.8 9.7 0.00 0.00 0.00 87 1009.0
20260505053454 21 181 6.4 11.3 0.00 0.00 0.00 87 1009.0
20260505052954 21 190 6.4 11.3 0.00 0.00 0.00 87 1009.0
20260505052454 21 181 8.0 17.7 0.00 0.00 0.00 86 1009.0
20260505051955 21 195 4.8 9.7 0.00 0.00 0.00 87 1009.0
20260505051454 21 186 8.0 11.3 0.00 0.00 0.00 87 1009.0
20260505050954 21 179 6.4 11.3 0.00 0.00 0.00 87 1009.0
20260505050454 21 171 3.2 9.7 0.00 0.00 0.00 87 1009.0
20260505041454 22 66 3.2 4.8 0.00 0.00 0.00 85 1009.0
20260505040954 22 172 4.8 9.7 0.00 0.00 0.00 84 1009.0
20260505040455 22 135 1.6 6.4 0.00 0.00 0.00 84 1010.0
20260505035954 22 102 1.6 3.2 0.00 0.00 0.00 83 1010.0
20260505035458 22 120 1.6 3.2 0.00 0.00 0.00 82 1010.0
20260505034954 23 195 3.2 6.4 0.00 0.00 0.00 81 1010.0
20260505034454 23 186 4.8 6.4 0.00 0.00 0.00 81 1009.0
20260505033954 23 188 6.4 17.7 0.00 0.00 0.00 81 1009.0
20260505033454 23 174 3.2 9.7 0.00 0.00 0.00 81 1009.0
20260505032954 23 169 3.2 9.7 0.00 0.00 0.00 81 1009.0
20260505032454 23 206 1.6 6.4 0.00 0.00 0.00 80 1009.0
20260505031954 23 153 3.2 6.4 0.00 0.00 0.00 80 1009.0
20260505031454 23 189 4.8 11.3 0.00 0.00 0.00 80 1009.0
20260505030954 23 154 3.2 6.4 0.00 0.00 0.00 79 1009.0
20260505030454 23 190 4.8 14.5 0.00 0.00 0.00 79 1009.0
20260505025954 23 187 1.6 3.2 0.00 0.00 0.00 79 1009.0
20260505025454 23 184 3.2 6.4 0.00 0.00 0.00 78 1009.0
20260505024954 23 173 3.2 8.0 0.00 0.00 0.00 78 1009.0
20260505024454 23 161 3.2 8.0 0.00 0.00 0.00 77 1009.0
20260505023954 23 128 3.2 11.3 0.00 0.00 0.00 77 1009.0
20260505023454 23 141 1.6 3.2 0.00 0.00 0.00 76 1009.0
20260505022954 23 201 3.2 8.0 0.00 0.00 0.00 76 1009.0
20260505022454 24 179 3.2 6.4 0.00 0.00 0.00 76 1009.0
20260505021954 24 188 4.8 9.7 0.00 0.00 0.00 75 1009.0
20260505021454 24 185 4.8 8.0 0.00 0.00 0.00 75 1009.0
20260505020954 24 165 6.4 11.3 0.00 0.00 0.00 74 1009.0
20260505020454 24 189 4.8 8.0 0.00 0.00 0.00 74 1009.0
20260505015511 24 190 4.8 8.0 0.00 0.00 0.00 73 1009.0